#timestamp,LO_Frequency,Hit 
1504126815.0,286047002.6,N
1504126815.9,286047002.6,N
1504126835.8,286046999.7,N
1504126855.6,286046999.7,N
1504126875.4,286047001.7,N
1504126895.2,286047001.5,N
1504126915.1,286047002.3,N
1504126916.0,286047002.3,N
1504126935.8,286047002.5,N
1504126955.6,286047003.9,N
1504126975.5,286047005.2,P
1504126995.3,286047003.1,N
1504127015.1,286047001.3,N
1504127035.9,286047003.9,N
1504127055.7,286047002.9,N
1504127075.6,286047005.2,P
1504127095.4,286047001.7,N
1504127115.2,286047001.9,N
1504127135.0,286047002.2,N
1504127136.0,286047002.2,N
1504127155.8,286047001.1,N
1504127175.6,286046999.6,N
1504127195.4,286047000.4,N
1504127215.3,286047000.5,N
1504127235.1,286047000.8,N
1504127255.8,286047000.4,N
1504127275.7,286047002.6,N
1504127295.5,286047002.1,N
1504127315.3,286047003.9,N
1504127335.2,286047003.6,N
1504127355.9,286047003.8,N
1504127375.7,286047001.4,N
1504127395.6,286047005.7,P
1504127415.4,286047001.7,N
1504127435.2,286047002.9,N
1504127455.1,286047003.7,N
1504127456.0,286047003.7,N
1504127475.8,286047003.2,N
1504127495.6,286047002.9,N
1504127515.5,286047005.6,P
1504127535.3,286047004.2,P
1504127555.1,286047001.9,N
1504127575.0,286047002.6,N
1504127575.9,286047002.6,N
1504127595.8,286047002.4,N
1504127615.6,286047002.9,N
1504127635.4,286047003.9,P
1504127655.3,286046999.6,N
1504127675.1,286046999.6,N
1504127676.0,286046999.6,N
1504127695.8,286046998.7,N
1504127715.7,286047000.0,N
1504127735.5,286047000.7,N
1504127755.3,286046999.1,N
1504127775.2,286046997.1,N
1504127795.9,286046997.6,N
1504127815.7,286046994.9,N
1504127835.5,286046997.6,N
1504127855.4,286046997.2,N
1504127875.2,286046999.6,N
1504127895.0,286046999.9,N
1504127895.9,286046999.9,N
1504127915.8,286047002.6,N
1504127935.6,286046999.8,N
1504127955.4,286047004.2,N
1504127975.3,286047002.5,N
1504127995.1,286047001.8,N
1504127996.0,286047001.8,N
1504128015.8,286047002.3,N
1504128035.7,286047002.4,N
1504128055.5,286047002.5,N
1504128075.3,286046999.8,N
1504128095.2,286047000.6,N
1504128115.9,286047004.4,N
1504128135.7,286047003.1,N
1504128155.6,286047003.6,N
1504128175.4,286047003.6,N
1504128195.2,286047005.8,N
1504128215.0,286047003.1,N
1504128215.9,286047003.1,N
1504128235.8,286047003.3,N
1504128255.6,286047004.8,N
1504128275.4,286047003.0,N
1504128295.3,286047004.7,N
1504128315.1,286047007.0,N
1504128335.8,286047006.6,N
1504128355.7,286047007.2,N
1504128375.5,286047007.1,N
1504128395.3,286047007.1,N
1504128415.2,286047009.0,P
1504128435.9,286047004.1,N
1504128455.7,286047004.1,N
1504128475.6,286047006.0,N
1504128495.4,286047004.4,N
1504128515.2,286047002.5,N
1504128535.1,286047002.9,N
1504128536.0,286047002.9,N
1504128555.8,286047004.9,N
1504128575.6,286047004.8,N
1504128595.5,286047006.0,P
1504128615.3,286046999.9,N
1504128635.1,286047000.0,N
1504128655.9,286047000.0,N
1504128675.7,286047000.6,N
1504128695.5,286047001.2,N
1504128715.3,286046999.4,N
1504128735.2,286047000.5,N
1504128755.0,286047000.0,N
1504128755.9,286047000.0,N
1504128775.7,286046999.8,N
1504128795.6,286047002.7,N
1504128815.4,286047001.5,N
1504128835.2,286047000.1,N
1504128855.1,286047001.8,N
1504128856.0,286047001.8,N
1504128875.8,286047002.6,N
1504128895.6,286047000.5,N
1504128915.5,286047000.1,N
1504128935.3,286046999.7,N
1504128955.1,286047001.8,N
1504128975.9,286047003.6,N
1504128995.7,286047001.4,N
1504129015.5,286047004.0,N
1504129035.4,286047003.6,N
1504129055.2,286047003.1,N
1504129075.0,286047003.4,N
1504129075.9,286047003.4,N
1504129095.8,286047005.6,P
1504129115.6,286047001.9,N
1504129135.4,286047002.4,N
1504129155.3,286047004.3,N
1504129175.1,286047002.8,N
1504129176.0,286047002.8,N
1504129195.8,286047001.6,N
1504129215.7,286047003.6,N
1504129235.5,286047005.9,P
1504129255.3,286047002.6,N
1504129275.2,286047001.8,N
1504129295.9,286047003.9,N
1504129315.7,286047003.7,N
1504129335.5,286047001.3,N
1504129355.4,286047002.7,N
1504129375.2,286047002.5,N
1504129395.0,286047002.5,N
1504129395.9,286047002.5,N
1504129415.8,286047002.3,N
1504129435.6,286046999.8,N
1504129455.4,286047001.5,N
1504129475.3,286047002.5,N
1504129495.1,286047003.1,N
1504129496.0,286047003.1,N
1504129515.8,286047001.3,N
1504129535.7,286047004.4,P
1504129555.5,286047000.4,N
1504129575.3,286047002.4,N
1504129595.2,286047002.5,N
1504129615.9,286047002.7,N
1504129635.7,286047002.1,N
1504129655.6,286047000.1,N
1504129675.4,286047002.1,N
1504129695.2,286047005.6,P
1504129715.1,286047004.1,N
1504129716.0,286047004.1,N
1504129735.8,286047005.9,P
1504129755.6,286047002.3,N
1504129775.5,286047000.6,N
1504129795.3,286046999.2,N
1504129815.1,286046999.5,N
1504129835.9,286046997.8,N
1504129855.7,286046999.4,N
1504129875.5,286046999.6,N
1504129895.4,286046998.5,N
1504129915.2,286047000.5,N
1504129935.0,286046998.2,N
1504129935.9,286046998.2,N
1504129955.8,286046998.6,N
1504129975.6,286046998.9,N
1504129995.4,286047001.0,N
1504130015.2,286046999.8,N
1504130035.1,286046998.5,N
1504130036.0,286046998.5,N
1504130055.8,286047001.1,N
1504130075.6,286047000.5,N
1504130095.5,286046998.2,N
1504130115.3,286047001.9,N
1504130135.1,286047001.9,N
1504130155.9,286047002.1,N
1504130175.7,286047000.9,N
1504130195.5,286047000.1,N
1504130215.4,286047000.2,N
1504130235.2,286047000.4,N
1504130255.0,286047002.4,N
1504130255.9,286047002.4,N
1504130275.8,286047004.3,N
1504130295.6,286047001.9,N
1504130315.4,286047004.2,N
1504130335.2,286047004.4,N
1504130355.1,286047002.4,N
1504130356.0,286047002.4,N
1504130375.8,286047004.1,N
1504130395.6,286047004.2,N
